Location: Newark
(47.7394°N, 8.0008°E)
Time: 15:10:06
(UTC+00:00)

ISS - Visible Passes

Search period start: 05 December 2019 00:00
Search period end: 15 December 2019 00:00
Orbit: 412 x 421 km, 51.6° (Epoch: 05 December)

Date Brightness Start Highest point End Pass type
(mag) Time Alt. Az. Time Alt. Az. Time Alt. Az.
05 Dec -3.3 16:37:56 10° WNW 16:41:11 45° N 16:43:34 16° ENE visible
05 Dec -1.7 18:14:42 10° WNW 18:16:28 28° WNW 18:16:28 28° WNW visible
06 Dec -3.9 17:26:14 10° WNW 17:29:36 89° NNE 17:30:12 58° ESE visible
07 Dec -3.8 16:37:45 10° WNW 16:41:06 66° NNE 16:44:04 13° ESE visible
07 Dec -1.6 18:14:43 10° W 18:16:59 26° WSW 18:16:59 26° WSW visible
08 Dec -2.7 17:26:04 10° WNW 17:29:18 44° SSW 17:31:02 23° SSE visible
09 Dec -3.4 16:37:31 10° WNW 16:40:51 67° SSW 16:44:11 10° SE visible
09 Dec -0.8 18:15:29 10° WSW 18:17:04 13° SW 18:18:17 11° SSW visible
10 Dec -1.1 17:26:13 10° W 17:28:46 20° SW 17:31:18 10° S visible
11 Dec -1.7 16:37:24 10° W 16:40:24 31° SW 16:43:24 10° SSE visible
13 Dec -0.5 16:37:56 10° WSW 16:39:44 14° SW 16:41:31 10° SSW visible
